Wind_Speed
22 22 22 22 22 22 22 22 22 23 23 22 21 19 20 21 19 19 19 19 19 19 20 20 21 22 24 25 27 28 29 31 32 33 35 37 39 41 43 46 48 50 51 52
24 24 23 22 23 23 23 23 23 24 25 25 23 21 22 24 22 22 22 21 21 22 23 23 24 25 26 28 30 31 32 34 35 37 38 39 41 43 46 48 50 52 54 55
24 24 24 23 23 24 24 25 25 26 26 27 27 23 24 26 25 24 24 24 24 24 25 26 26 28 29 31 33 34 35 36 38 40 41 43 44 46 49 51 53 55 56 57
24 24 24 23 23 25 24 26 27 28 28 28 30 28 20 27 26 25 25 26 26 26 27 28 29 30 32 34 36 37 38 40 41 43 44 46 47 49 51 54 56 57 58 59
22 23 23 22 24 26 26 27 29 29 30 30 29 33 23 26 27 27 27 28 28 29 29 30 31 33 35 37 39 40 41 42 44 45 47 49 50 52 54 56 58 59 60 60
21 22 23 23 25 27 28 30 31 31 32 31 30 33 28 25 28 28 29 30 30 31 31 32 34 36 38 40 42 43 44 45 47 48 50 52 53 55 56 58 60 61 62 62
21 23 24 25 26 28 30 32 35 35 34 32 32 32 28 26 28 29 30 31 32 32 33 35 37 40 41 43 45 46 47 48 50 51 52 54 56 57 59 61 62 62 63 63
23 24 25 27 28 30 31 33 35 39 38 36 35 34 29 28 28 30 31 33 34 35 37 39 41 44 45 46 48 49 50 51 53 54 55 56 58 59 61 62 63 63 64 64
28 26 27 28 30 31 32 33 35 39 42 41 38 35 31 28 27 28 30 33 36 39 42 44 46 48 49 50 51 52 53 54 55 57 58 59 60 61 62 63 64 64 64 64
31 30 28 29 31 32 34 35 36 39 43 45 41 37 33 30 29 29 31 34 37 41 45 48 50 52 54 54 54 54 56 57 58 59 60 60 61 62 64 64 65 65 65 65
34 34 31 31 32 33 34 35 37 40 42 46 47 41 35 35 34 34 35 38 42 45 48 51 54 56 58 58 57 57 58 59 60 60 61 62 62 63 65 65 66 66 65 66
36 37 35 34 34 34 36 37 39 41 43 45 49 47 37 37 38 40 41 42 44 47 49 52 53 55 56 57 58 58 59 59 60 61 62 62 63 65 66 66 66 66 66 67
38 39 39 38 36 38 39 39 40 42 45 46 49 49 42 43 44 45 46 46 47 48 49 51 52 54 55 56 57 57 58 59 60 61 62 62 64 66 66 66 66 67 67 68
42 42 42 42 40 41 43 42 42 43 45 48 49 50 46 46 49 50 49 50 49 50 51 52 53 54 54 55 55 56 57 59 60 61 62 63 64 66 66 66 67 68 69 69
45 47 46 46 45 45 47 46 44 45 46 50 51 51 50 52 54 54 54 54 54 54 54 54 54 54 55 55 56 56 57 58 59 60 62 63 65 66 67 67 68 69 70 69
48 50 51 50 48 50 52 48 46 47 48 50 53 53 51 54 56 56 57 57 57 56 56 55 56 55 55 56 57 57 57 58 59 61 62 65 66 67 67 68 68 69 68 68
49 51 53 54 52 55 54 48 48 50 50 52 54 54 55 57 57 57 58 58 58 57 57 57 57 57 57 57 58 59 59 61 62 63 64 66 67 67 67 67 68 68 67 66
51 52 55 57 57 59 54 51 51 53 53 52 54 56 57 58 57 57 58 58 58 58 58 58 58 59 59 60 61 62 62 63 63 64 66 67 67 66 66 66 66 65 64 63
48 51 54 57 58 59 54 52 54 56 55 53 55 57 58 58 57 56 57 57 58 58 59 60 61 61 61 62 63 63 63 64 65 65 65 65 65 65 64 63 62 61 60 59
44 46 50 53 56 58 55 53 54 55 56 55 57 57 57 56 56 55 55 56 57 58 59 61 61 61 61 62 63 63 63 63 63 63 63 62 62 61 60 59 58 58 57 56
44 46 47 50 53 54 53 53 54 55 56 56 56 56 55 56 57 57 56 57 57 58 58 58 59 59 59 59 59 58 58 58 58 58 57 57 57 56 56 56 56 56 55 53
44 45 46 49 51 51 51 53 53 54 54 54 54 55 56 57 57 57 57 56 56 55 55 56 55 54 54 55 54 53 53 54 54 54 54 54 54 54 55 55 55 54 53 52
43 44 46 48 49 49 50 51 52 53 53 53 53 53 54 54 55 54 54 53 53 52 52 52 51 50 49 50 51 52 51 52 52 52 53 54 54 54 54 53 53 51 50 49
42 42 44 47 46 47 48 49 49 50 51 51 51 51 51 51 51 50 49 49 49 49 48 48 48 48 48 49 50 51 51 51 52 52 53 54 53 53 53 53 52 51 50 49
41 42 45 47 46 47 46 47 48 49 50 50 50 51 50 50 49 48 47 46 46 47 47 48 48 47 47 49 50 51 51 52 53 53 53 53 54 54 55 55 54 53 52 51
40 44 47 48 48 50 49 48 49 49 49 49 49 49 48 48 48 48 47 47 48 48 48 48 47 48 49 49 50 51 53 54 54 54 55 56 56 56 56 55 54 53 52 50
Wind_Direction
277 282 286 291 293 294 293 290 287 284 283 279 277 276 276 278 277 276 277 278 279 280 282 284 286 288 292 296 300 304 308 311 314 317 319 320 321 322 323 325 326 327 326 324
274 278 282 285 287 290 292 291 288 285 283 281 278 278 276 276 276 276 277 278 279 280 282 283 284 286 289 293 296 300 305 309 312 314 317 318 319 320 321 323 323 325 325 324
273 275 277 280 284 288 293 294 292 289 286 285 283 279 276 275 276 277 278 277 278 279 280 282 284 285 287 290 295 298 302 306 309 312 314 316 317 318 319 321 322 323 324 323
273 273 275 279 284 288 293 294 294 293 291 289 288 285 276 278 279 279 278 277 277 279 280 281 283 284 286 289 293 297 300 303 306 309 311 314 315 316 318 319 320 321 322 322
276 274 276 280 284 289 293 295 295 295 294 294 293 290 288 281 281 279 277 277 277 278 279 280 281 283 286 289 292 295 298 300 303 306 308 311 313 314 316 318 319 320 320 321
280 280 280 282 286 291 294 296 296 296 296 297 296 294 297 290 283 280 278 277 277 278 279 280 281 283 285 288 290 293 296 298 300 303 306 308 310 312 315 316 317 319 319 319
283 285 285 286 288 291 294 297 298 297 297 298 299 298 303 300 290 283 279 277 276 277 278 278 279 281 283 286 289 291 294 296 299 301 304 306 309 311 313 315 316 317 318 318
285 285 287 289 290 292 295 296 298 298 299 299 300 302 308 307 297 290 284 279 276 275 275 275 277 279 281 284 287 290 293 295 297 299 302 305 307 309 311 313 315 316 316 317
288 287 288 290 292 293 294 294 296 297 298 299 300 302 306 308 303 295 288 282 277 275 274 275 276 278 280 283 286 288 291 293 295 298 300 303 306 308 310 312 313 314 315 315
288 288 289 290 292 293 294 295 296 296 297 298 299 302 309 311 305 296 288 282 278 275 274 275 276 278 281 283 286 288 290 292 294 296 299 302 304 306 308 310 312 313 313 314
287 288 289 289 290 292 292 293 293 294 295 297 299 302 311 308 302 295 288 283 280 278 277 278 279 281 284 286 287 289 290 292 293 295 298 301 303 305 307 309 310 311 312 314
286 287 288 289 290 290 290 291 292 293 293 295 296 300 308 304 298 293 289 286 284 284 284 284 286 286 287 287 288 289 289 291 292 294 297 300 301 303 305 307 309 311 312 314
286 287 289 289 290 289 288 289 290 291 292 294 295 298 303 301 297 294 293 292 290 289 289 289 289 289 289 288 288 288 289 290 292 294 296 298 300 301 304 306 308 310 312 314
285 286 288 289 290 289 288 288 289 290 292 292 293 295 296 296 293 293 294 294 294 293 292 292 292 292 292 291 290 290 290 291 293 294 296 297 299 301 304 306 308 310 311 313
284 285 285 286 287 287 286 287 291 292 293 292 293 293 296 295 294 295 295 296 296 296 295 295 295 294 294 293 292 292 291 292 293 294 296 298 300 302 304 306 308 309 311 313
284 285 285 285 286 285 285 289 292 291 291 291 291 291 293 292 293 295 296 297 297 298 298 297 297 297 296 295 294 294 293 293 294 295 296 298 300 302 305 306 308 310 311 313
283 284 285 286 286 284 286 290 289 288 288 289 290 291 290 291 293 294 295 296 298 298 299 299 299 298 298 296 295 294 294 295 295 296 298 299 301 303 305 306 308 310 311 312
286 286 287 288 288 287 290 291 291 289 289 290 290 290 290 292 294 295 297 298 299 300 300 300 299 298 297 297 296 296 296 297 297 298 299 301 303 304 305 306 308 309 310 312
287 287 288 289 290 292 294 295 292 291 291 291 290 290 291 292 293 295 298 300 301 301 301 300 299 298 298 297 297 296 297 298 299 300 301 302 303 304 305 306 308 309 311 312
289 287 287 289 290 293 297 296 294 293 293 293 291 292 292 294 295 297 297 298 299 299 299 299 298 298 299 298 297 297 298 299 300 301 302 303 303 304 305 307 308 310 311 312
295 294 293 293 294 297 299 297 296 295 296 294 293 293 293 294 295 297 297 298 299 300 300 300 300 300 300 299 299 299 300 301 302 304 305 306 306 306 306 307 309 310 310 312
299 298 298 297 298 301 301 299 297 296 294 293 292 292 293 294 295 297 298 300 300 301 302 302 302 302 302 301 301 301 302 303 305 306 307 307 307 308 308 308 309 310 311 311
299 300 300 299 301 301 300 299 298 296 295 294 293 293 294 296 297 298 299 300 301 302 303 303 304 304 303 303 304 305 305 305 306 307 307 307 307 308 308 308 310 311 312 312
301 302 300 300 302 301 300 298 298 296 295 295 295 296 296 297 298 299 301 302 302 303 304 304 305 305 305 305 306 306 307 307 308 308 308 308 308 308 308 308 309 309 310 310
303 301 300 300 301 300 301 300 300 298 297 296 296 296 297 297 299 301 302 302 303 304 305 306 306 306 306 307 307 307 308 308 309 309 309 308 308 308 307 308 308 307 307 308
300 298 298 300 300 301 302 301 300 299 298 296 295 295 296 296 298 299 301 302 303 304 305 307 308 308 308 308 308 307 307 308 309 309 308 308 308 307 307 306 305 305 305 305
Height
5860 5860 5858 5856 5854 5853 5851 5849 5848 5846 5844 5844 5843 5843 5842 5839 5838 5837 5835 5834 5832 5831 5829 5827 5825 5823 5821 5819 5816 5812 5809 5805 5800 5796 5791 5786 5781 5775 5770 5763 5756 5749 5742 5735
5857 5855 5854 5852 5850 5848 5846 5845 5843 5842 5839 5838 5838 5839 5837 5835 5834 5833 5831 5829 5828 5826 5824 5822 5820 5818 5816 5813 5810 5806 5802 5798 5793 5789 5784 5779 5773 5767 5761 5754 5747 5740 5732 5724
5851 5851 5849 5847 5846 5844 5842 5840 5838 5836 5834 5833 5832 5834 5833 5831 5829 5828 5826 5824 5822 5821 5819 5817 5814 5812 5809 5806 5803 5799 5795 5790 5786 5781 5776 5771 5765 5759 5752 5745 5738 5730 5722 5714
5846 5846 5844 5843 5841 5839 5838 5835 5833 5831 5829 5828 5827 5826 5831 5825 5824 5822 5820 5818 5817 5815 5813 5810 5808 5805 5803 5799 5796 5792 5787 5783 5778 5772 5767 5762 5756 5750 5743 5736 5728 5720 5712 5703
5842 5841 5840 5839 5837 5835 5833 5831 5828 5826 5824 5823 5822 5818 5825 5822 5819 5816 5814 5812 5810 5808 5806 5803 5801 5798 5795 5792 5788 5784 5779 5775 5769 5764 5759 5753 5747 5740 5733 5725 5717 5709 5701 5692
5838 5836 5835 5835 5833 5830 5828 5826 5823 5821 5819 5818 5817 5813 5816 5816 5812 5810 5808 5805 5803 5801 5799 5796 5793 5790 5787 5783 5779 5775 5771 5766 5760 5755 5749 5743 5737 5730 5722 5714 5706 5698 5689 5680
5834 5833 5831 5830 5828 5826 5823 5820 5817 5814 5813 5812 5810 5808 5810 5808 5805 5802 5800 5798 5795 5793 5791 5788 5784 5781 5777 5773 5770 5765 5761 5756 5751 5745 5739 5733 5726 5719 5711 5703 5695 5686 5678 5669
5830 5830 5827 5825 5823 5821 5818 5815 5812 5807 5805 5804 5803 5801 5804 5801 5797 5794 5791 5789 5786 5784 5781 5778 5774 5771 5767 5763 5759 5755 5750 5745 5740 5734 5728 5722 5715 5707 5700 5691 5683 5675 5666 5657
5824 5824 5822 5820 5817 5815 5812 5810 5807 5801 5797 5795 5796 5796 5797 5794 5790 5786 5783 5779 5776 5773 5769 5766 5763 5759 5756 5752 5748 5744 5739 5734 5728 5722 5716 5710 5703 5695 5688 5680 5671 5662 5653 5644
5817 5817 5817 5815 5812 5809 5806 5803 5800 5795 5789 5786 5786 5787 5788 5786 5782 5778 5774 5769 5765 5762 5758 5754 5750 5747 5743 5740 5737 5732 5727 5721 5716 5710 5704 5698 5691 5683 5676 5668 5659 5650 5641 5632
5810 5810 5810 5809 5806 5803 5800 5797 5793 5788 5784 5779 5774 5780 5782 5776 5771 5768 5764 5759 5755 5751 5747 5743 5739 5735 5732 5728 5724 5720 5714 5709 5703 5697 5692 5686 5679 5671 5663 5655 5647 5638 5628 5619
5803 5801 5801 5801 5799 5796 5792 5789 5786 5782 5778 5773 5766 5769 5773 5767 5761 5756 5753 5749 5745 5741 5737 5733 5729 5725 5720 5716 5711 5706 5701 5696 5690 5685 5679 5673 5666 5658 5650 5642 5634 5625 5616 5606
5796 5794 5792 5792 5793 5788 5784 5781 5778 5774 5770 5765 5759 5760 5761 5755 5748 5744 5741 5738 5734 5730 5726 5722 5717 5713 5708 5703 5698 5693 5688 5683 5677 5672 5666 5660 5652 5644 5637 5629 5621 5612 5603 5593
5787 5785 5784 5782 5781 5777 5774 5772 5769 5765 5761 5755 5752 5748 5750 5743 5736 5734 5730 5726 5722 5718 5713 5709 5705 5700 5695 5690 5685 5680 5675 5669 5664 5658 5652 5645 5638 5631 5623 5616 5607 5598 5589 5580
5777 5776 5774 5772 5770 5766 5763 5761 5760 5755 5751 5745 5742 5738 5736 5729 5723 5720 5717 5713 5709 5706 5701 5697 5692 5687 5682 5677 5672 5667 5661 5656 5650 5644 5638 5631 5623 5616 5609 5602 5593 5585 5576 5566
5767 5764 5762 5760 5760 5754 5750 5753 5750 5745 5740 5735 5730 5727 5725 5717 5712 5708 5704 5700 5696 5692 5688 5683 5679 5674 5669 5663 5658 5653 5647 5641 5635 5629 5623 5616 5609 5602 5595 5587 5579 5571 5562 5553
5757 5754 5750 5746 5746 5741 5740 5745 5739 5734 5730 5724 5718 5716 5710 5706 5702 5697 5692 5688 5683 5679 5674 5670 5665 5660 5655 5649 5643 5638 5632 5626 5620 5614 5608 5601 5594 5588 5580 5573 5565 5557 5548 5539
5745 5742 5737 5733 5731 5725 5732 5730 5726 5719 5717 5713 5706 5701 5696 5693 5689 5684 5679 5675 5670 5665 5660 5655 5650 5645 5640 5634 5628 5623 5618 5611 5605 5599 5593 5587 5580 5573 5566 5558 5551 5542 5534 5526
5735 5730 5725 5720 5715 5710 5716 5717 5709 5703 5701 5700 5692 5687 5683 5679 5676 5673 5667 5661 5656 5651 5646 5641 5635 5630 5625 5619 5613 5608 5602 5596 5590 5584 5578 5572 5565 5558 5551 5544 5536 5528 5520 5512
5725 5721 5716 5710 5703 5699 5704 5701 5694 5690 5686 5684 5677 5672 5669 5665 5661 5661 5656 5650 5645 5639 5633 5627 5622 5616 5610 5603 5597 5592 5587 5581 5575 5569 5563 5557 5550 5543 5536 5529 5522 5515 5507 5499
5712 5708 5704 5699 5691 5689 5692 5686 5680 5677 5674 5667 5662 5658 5655 5651 5647 5644 5641 5637 5632 5626 5620 5613 5607 5601 5595 5588 5582 5577 5572 5566 5560 5554 5548 5542 5535 5528 5522 5515 5509 5502 5494 5487
5701 5697 5693 5688 5682 5682 5678 5672 5668 5663 5659 5654 5649 5645 5641 5637 5634 5630 5627 5622 5617 5612 5606 5599 5593 5587 5581 5574 5568 5564 5558 5552 5547 5541 5535 5528 5522 5515 5508 5502 5495 5488 5481 5474
5691 5687 5682 5678 5675 5671 5665 5659 5654 5650 5645 5641 5636 5633 5629 5625 5621 5618 5614 5609 5604 5598 5592 5586 5580 5574 5569 5562 5556 5551 5546 5540 5534 5528 5521 5515 5509 5502 5495 5489 5482 5475 5468 5462
5682 5677 5671 5666 5664 5659 5654 5648 5643 5638 5633 5628 5624 5620 5616 5612 5609 5605 5601 5596 5591 5585 5579 5573 5568 5562 5557 5551 5545 5538 5533 5527 5522 5515 5509 5502 5495 5489 5482 5475 5469 5463 5456 5450
5670 5664 5659 5655 5652 5648 5644 5637 5632 5627 5622 5617 5613 5609 5604 5600 5597 5593 5589 5584 5579 5573 5567 5562 5556 5550 5545 5539 5533 5527 5521 5515 5509 5502 5495 5489 5482 5475 5468 5462 5456 5449 5444 5437
5660 5653 5647 5644 5640 5635 5633 5626 5621 5616 5611 5606 5602 5598 5593 5589 5585 5581 5577 5572 5567 5561 5556 5550 5544 5538 5533 5527 5521 5514 5508 5502 5495 5489 5482 5475 5468 5461 5454 5448 5442 5435 5430 5424